GFSCGP_250_rhum_021.txt.gz
RH
35 48 50 34 20 21 25 22 21 14 12 9 100 77 73 8 7 8 9 9 9 10 12 13 17 24 22 28 54 83 48 51 30 18 31 54 36 22 16 16 24 25 24 25
44 58 55 39 32 25 27 25 23 19 15 13 26 80 72 9 8 8 11 10 10 11 17 19 26 25 27 30 34 36 41 24 14 21 21 23 43 22 24 23 24 25 24 23
24 41 47 56 47 37 33 32 21 23 19 15 12 23 23 11 12 11 13 14 14 17 20 24 26 26 28 26 20 15 13 12 14 12 15 19 20 18 23 27 28 26 25 26
11 17 32 48 63 49 40 36 28 21 22 20 16 16 18 11 14 14 16 17 17 18 20 22 26 27 25 21 19 19 18 15 13 12 16 18 17 22 27 28 29 24 24 25
11 10 15 29 45 56 49 40 32 23 19 26 20 16 12 11 15 17 18 19 24 30 24 24 23 23 23 24 25 23 18 13 12 14 18 18 18 24 25 26 29 26 26 25
21 16 11 14 23 39 45 38 39 30 18 19 23 23 18 22 19 15 20 22 34 42 43 41 30 24 24 24 24 21 14 12 12 15 18 18 21 24 24 25 27 29 27 26
32 21 19 13 11 17 38 54 42 40 23 23 33 27 34 21 21 25 20 21 27 35 40 51 41 34 31 26 24 23 18 13 13 16 18 18 22 23 24 26 27 28 30 31
20 31 34 23 18 11 14 33 42 40 47 31 31 24 35 31 23 18 20 25 23 22 28 33 35 32 37 38 26 22 19 16 14 16 18 19 24 23 24 26 30 32 32 33
31 28 33 18 22 20 12 12 24 35 41 43 32 23 28 30 28 23 18 17 19 22 26 25 26 28 34 40 31 20 15 14 15 17 19 22 25 24 25 26 28 30 29 34
31 30 32 33 19 21 19 19 12 17 33 41 47 34 31 30 25 30 29 22 19 17 23 24 31 32 35 30 23 16 14 16 18 20 21 25 25 24 24 26 28 28 29 33
29 19 33 25 22 24 19 22 18 12 15 28 43 45 40 38 32 30 32 31 22 22 22 20 16 17 17 16 15 16 18 19 20 22 25 26 25 23 24 26 29 29 32 34
40 33 26 24 29 27 25 16 21 14 14 13 20 40 45 42 40 33 31 32 25 22 28 25 25 21 19 18 18 19 19 20 21 23 25 26 24 25 27 29 30 31 32 36
35 29 23 19 15 14 27 30 31 24 24 11 11 17 34 45 42 38 37 33 32 22 24 30 27 28 27 25 23 22 22 23 24 25 26 25 24 28 30 32 33 32 33 36
40 35 28 25 26 30 19 25 27 27 21 20 16 12 15 28 43 44 40 40 37 33 27 22 32 30 28 27 26 27 27 26 26 26 26 26 26 30 32 33 33 33 33 34
36 29 28 30 31 36 24 22 22 21 22 19 24 19 14 15 26 41 44 42 41 38 32 28 28 32 31 28 27 28 28 27 28 28 28 29 29 30 31 32 33 34 34 33
41 31 39 41 38 34 30 24 24 27 27 22 22 25 26 30 15 22 39 44 43 42 38 35 31 32 32 31 29 29 28 29 28 30 29 29 30 30 31 31 31 33 33 36
42 36 33 37 53 53 56 28 34 32 31 39 32 30 51 37 29 14 18 35 42 43 40 36 35 36 34 32 32 31 30 29 29 30 30 30 29 29 29 30 31 34 36 40
44 40 35 32 51 60 46 56 49 44 37 46 47 58 59 41 36 27 13 14 26 37 41 42 39 32 38 36 34 32 31 31 30 30 30 28 27 28 30 31 33 36 39 41
41 40 42 38 48 54 56 67 61 58 35 39 55 60 49 43 42 38 31 16 12 20 29 36 42 42 37 40 38 37 34 32 30 30 29 29 29 30 33 34 36 38 40 41
48 41 41 42 51 55 60 80 100 91 57 51 52 51 49 53 58 65 57 33 22 13 16 22 29 35 40 40 39 38 38 37 35 34 34 34 34 34 35 36 37 39 40 41
60 58 45 50 56 61 75 100 100 99 52 49 53 67 63 56 67 58 50 34 28 25 13 12 17 22 26 32 39 42 41 40 41 40 40 40 40 40 39 40 41 42 41 52
60 44 33 44 50 59 89 100 100 82 73 58 67 66 56 59 61 63 63 63 55 28 20 16 11 14 18 21 25 32 40 42 43 43 43 44 45 45 45 45 45 52 95 80
63 56 47 55 71 57 90 90 94 70 78 71 73 100 100 86 88 61 42 43 39 35 34 23 14 11 10 13 18 17 22 32 37 42 43 44 44 44 45 44 55 75 96 70
43 82 77 52 61 55 61 74 64 87 84 79 74 96 100 100 82 54 49 44 32 27 26 22 19 16 11 10 10 13 18 20 25 30 33 37 40 41 43 44 45 42 42 34
61 87 67 68 100 100 94 100 92 81 66 100 99 100 100 63 55 50 46 33 28 30 50 66 80 64 27 15 13 12 14 16 20 26 28 27 28 30 31 31 32 29 28 27
81 63 62 78 81 100 90 74 84 73 87 100 100 100 88 60 59 52 43 34 40 99 98 100 100 80 93 44 17 15 12 14 16 16 35 96 100 86 40 30 30 31 33 34

GFSCGP_250_rhum_024.txt.gz
RH
38 42 44 38 32 31 22 24 22 20 14 10 37 72 19 42 46 12 7 8 8 12 10 9 12 25 28 35 48 62 67 32 25 21 38 53 58 23 22 23 23 23 22 24
28 44 44 39 35 37 39 26 19 20 21 13 40 65 44 8 7 7 8 8 9 12 11 11 18 24 33 44 81 76 53 20 17 22 21 21 22 18 23 26 25 25 24 26
13 24 38 52 55 44 49 39 25 17 22 23 17 18 70 11 9 8 10 10 10 15 15 14 19 20 28 39 55 47 39 13 14 13 15 18 18 20 27 25 27 27 25 26
10 10 18 31 53 60 50 48 35 20 18 25 24 16 16 26 12 11 12 14 14 18 19 19 21 21 24 22 19 15 14 14 14 12 14 18 18 23 25 26 28 27 26 26
15 11 9 14 25 46 60 46 44 35 18 18 25 23 15 21 12 13 15 16 17 20 22 21 21 22 24 22 21 21 22 18 14 12 15 18 19 22 24 26 30 33 32 29
28 18 17 10 12 22 41 44 41 44 27 17 22 32 26 24 13 14 15 17 19 21 25 23 24 24 21 23 26 26 26 21 14 12 14 17 19 20 24 24 30 32 29 29
32 32 22 22 14 11 17 30 37 30 37 37 33 25 37 32 25 18 16 18 21 25 33 30 33 31 30 25 23 24 24 22 17 14 14 14 18 20 24 24 26 27 28 28
24 23 34 33 19 16 11 13 20 24 34 40 31 20 32 31 31 25 25 20 22 26 38 35 44 50 46 37 41 33 26 24 20 17 17 16 17 20 25 24 25 26 26 27
26 24 26 21 25 17 21 12 12 14 20 30 40 29 36 24 31 35 22 26 29 27 23 32 31 39 40 36 37 37 37 24 21 17 15 16 19 21 25 24 24 26 27 27
26 25 24 20 19 16 18 22 18 12 13 19 39 40 41 32 26 30 36 28 21 22 26 26 24 24 28 26 32 32 39 27 22 17 15 18 20 23 26 26 25 26 28 28
21 17 26 16 13 21 21 17 20 22 13 10 19 30 50 47 33 21 27 35 29 27 21 20 21 24 36 29 37 42 40 31 16 16 16 19 21 23 26 27 25 28 31 30
21 21 22 15 19 18 13 16 14 16 17 19 10 14 27 46 50 31 26 25 30 28 34 29 24 20 21 22 24 30 21 20 16 17 17 20 21 23 26 26 26 27 31 31
22 19 19 15 13 11 12 17 21 19 17 17 18 17 11 19 36 48 41 37 32 27 27 30 34 35 26 22 22 20 19 19 18 20 20 21 23 25 26 27 27 28 30 30
26 23 18 20 24 25 21 19 17 14 16 20 21 33 32 11 15 28 46 46 40 37 32 26 26 32 43 34 29 27 27 25 23 21 24 24 24 27 27 28 29 30 30 30
35 29 26 23 27 25 22 24 23 18 18 17 28 24 30 29 14 13 22 40 46 42 40 37 35 31 32 34 33 32 31 28 26 24 27 27 27 28 29 30 30 30 30 30
24 21 23 23 29 34 29 28 29 26 25 22 24 26 24 33 27 22 15 15 27 44 44 41 38 36 33 32 32 32 32 32 30 29 28 28 29 29 30 30 31 31 30 29
30 28 28 23 28 33 39 21 29 34 32 29 25 30 29 26 37 36 32 21 12 16 34 44 44 42 38 40 38 34 33 32 32 32 31 30 30 30 30 30 31 31 31 30
23 22 21 19 23 28 19 24 29 35 34 32 30 30 36 40 42 49 50 36 24 14 12 22 38 45 45 43 42 41 38 36 34 32 32 32 32 32 32 31 31 31 32 32
18 20 19 21 29 27 32 39 44 40 35 38 36 32 31 44 41 42 58 62 38 24 18 12 13 24 36 44 44 42 46 50 51 40 36 36 34 34 33 33 33 33 33 35
20 20 23 24 33 29 35 51 64 50 39 36 38 34 29 35 52 57 64 63 68 43 29 23 21 11 14 25 38 43 43 44 49 56 49 43 40 38 38 37 37 37 37 39
31 28 27 28 29 29 40 61 67 76 48 42 38 34 32 31 40 54 74 71 77 52 29 29 22 20 11 10 15 25 36 43 45 49 51 52 49 45 43 42 42 42 42 42
35 42 40 43 32 31 35 50 53 52 55 43 38 35 28 28 42 48 85 96 90 79 59 45 43 27 18 13 10 10 14 22 33 41 44 46 47 49 48 46 44 43 43 42
21 27 44 47 36 37 39 45 46 43 48 47 43 38 31 32 40 49 85 100 99 67 56 44 35 27 20 14 10 8 7 8 12 18 24 30 37 40 44 45 45 43 41 38
13 22 34 50 38 42 52 50 56 63 45 48 44 38 37 37 48 69 73 99 100 100 79 47 33 28 23 19 15 12 11 10 8 7 8 10 13 20 26 30 31 27 24 28
8 19 30 78 57 46 59 67 66 65 66 68 66 59 59 55 53 61 67 66 88 99 71 61 43 25 17 12 14 27 52 61 54 37 17 10 8 8 8 10 11 29 100 100
7 15 31 100 76 53 67 75 68 87 83 84 82 77 58 66 58 70 71 63 66 57 61 51 28 28 84 96 100 100 96 98 90 71 81 33 10 12 10 89 52 100 100 100

GFSCGP_250_rhum_030.txt.gz
RH
12 21 41 42 34 21 22 24 30 21 21 20 21 22 54 68 40 49 46 47 32 9 10 11 11 18 13 19 36 33 18 18 23 30 34 38 19 21 22 23 25 23 26 27
9 10 17 25 35 31 35 31 29 32 18 23 22 17 55 77 13 14 14 13 8 9 12 21 27 14 14 25 34 26 23 26 25 29 23 22 18 21 22 23 24 25 26 27
9 8 10 16 28 41 50 48 38 26 23 23 21 21 30 50 30 7 8 8 8 13 14 32 19 17 20 30 39 40 36 28 23 19 16 19 18 21 23 22 23 25 26 26
16 10 10 9 12 20 36 53 41 34 26 24 28 24 18 18 25 9 9 9 10 11 11 17 17 16 22 38 57 72 36 26 16 13 14 19 19 19 22 23 24 25 26 26
28 15 13 12 9 10 15 27 35 34 37 23 36 29 22 19 15 20 9 11 10 11 13 16 16 18 27 36 66 60 46 20 13 15 13 16 18 19 19 23 24 24 24 24
31 26 28 19 11 10 8 12 19 27 45 41 39 37 30 23 19 34 11 12 12 13 15 16 22 24 26 33 57 56 33 24 15 16 14 14 15 16 16 18 24 25 23 22
31 27 29 16 18 21 11 9 9 12 23 53 44 39 38 24 24 19 16 12 14 16 18 19 22 22 28 30 31 23 18 19 23 22 18 14 14 15 16 17 19 24 24 22
28 26 29 30 30 22 9 10 9 9 13 41 48 44 40 35 24 21 19 14 12 16 20 23 22 25 24 22 21 21 22 27 30 26 17 17 16 16 16 16 18 20 21 23
27 24 27 28 28 21 14 13 15 10 9 11 29 56 51 42 36 28 25 17 13 13 18 21 24 23 22 21 20 21 24 26 28 25 25 22 19 19 18 16 17 19 20 21
23 26 26 28 25 22 20 19 15 18 16 13 10 24 50 52 43 38 29 29 20 15 14 18 23 24 24 24 29 33 34 35 40 39 37 30 28 25 22 19 16 18 20 21
26 25 32 27 22 27 28 27 19 18 18 28 19 17 13 34 55 46 39 32 31 26 22 18 17 22 27 29 34 41 46 49 46 43 37 36 32 36 31 22 17 17 18 20
26 28 31 27 25 22 22 22 16 14 24 24 19 24 18 13 18 51 50 41 33 31 28 20 24 21 20 27 33 35 43 46 46 42 40 35 30 34 41 26 19 17 18 20
25 23 29 26 23 20 18 19 19 19 21 24 29 65 38 25 17 13 38 49 45 41 35 31 26 24 24 26 27 28 29 28 27 28 30 30 37 38 30 22 19 19 20 22
24 22 26 24 26 21 17 18 17 17 16 21 26 63 65 46 33 18 12 23 46 47 45 38 34 34 34 32 29 28 28 27 28 26 23 34 32 21 21 20 22 24 25 24
22 21 21 22 25 21 17 16 17 15 16 16 33 44 57 36 29 20 20 18 16 22 29 42 47 43 40 35 34 33 34 34 31 36 43 37 28 25 24 26 28 29 28 27
20 20 19 20 18 15 11 13 17 16 14 14 21 22 36 40 23 24 27 28 28 26 19 19 24 33 44 46 44 38 33 32 31 38 36 36 36 36 35 33 34 33 32 33
16 16 16 16 17 14 10 11 15 18 17 14 18 22 30 42 25 26 29 29 29 30 28 27 22 18 22 38 47 47 49 42 36 32 35 32 33 34 34 34 34 33 33 33
15 14 13 13 14 14 11 15 12 13 15 12 12 20 22 23 29 20 22 25 27 29 30 31 31 32 31 26 22 30 42 47 50 48 44 41 38 36 36 34 32 33 33 34
12 13 13 11 12 12 11 12 13 14 15 16 11 12 16 20 24 22 23 20 22 27 29 31 31 29 30 31 29 28 21 17 24 42 50 48 46 42 43 42 42 40 39 38
16 12 10 10 9 10 13 12 12 16 14 16 14 14 17 15 15 21 21 21 21 21 20 21 30 28 29 37 34 25 26 26 17 14 18 34 42 41 40 40 42 43 43 44
12 12 10 10 8 9 10 13 11 10 14 20 12 15 16 14 14 21 27 21 22 19 18 17 22 29 31 31 31 32 27 27 23 16 13 11 12 15 18 20 23 22 28 27
9 9 9 12 8 7 13 16 16 11 16 21 16 17 13 15 15 17 26 26 21 19 19 16 16 20 27 30 36 38 33 27 21 17 15 14 13 12 11 11 10 10 9 8
8 8 7 8 8 8 17 18 16 14 17 26 28 20 14 14 17 20 21 22 21 22 20 16 16 21 26 27 33 37 36 34 24 18 15 14 15 18 17 20 14 11 11 14
14 10 7 7 7 9 10 14 16 16 16 15 18 22 15 15 16 22 23 25 27 25 24 22 23 28 33 34 33 35 40 38 35 22 18 16 20 24 22 18 11 40 62 88
12 16 16 12 10 8 8 12 15 16 17 16 17 19 23 17 19 25 26 30 32 29 30 38 38 45 46 44 40 40 39 43 42 36 26 19 29 32 24 16 38 73 96 99
5 7 11 18 21 20 13 12 16 15 20 30 27 19 18 26 28 28 26 26 26 26 34 54 64 65 70 52 53 50 50 49 45 44 26 28 31 27 19 20 65 98 97 99

GFSCGP_250_rhum_033.txt.gz
RH
8 11 14 15 21 19 23 32 26 22 20 19 18 20 22 33 60 49 34 41 43 62 11 8 10 13 14 14 21 32 17 18 24 27 32 21 19 23 22 23 25 26 28 28
9 8 8 10 14 18 35 44 37 28 23 22 19 19 20 22 37 14 21 31 18 14 10 11 11 15 18 15 30 26 18 19 26 25 29 19 19 21 22 23 25 25 26 26
10 9 10 10 10 15 31 55 47 41 29 23 25 22 19 20 42 18 8 7 8 11 14 17 22 23 19 24 37 20 20 20 21 16 18 18 18 21 21 23 26 26 24 24
14 12 11 10 10 9 14 30 52 47 41 33 26 30 23 20 24 20 14 8 9 14 15 24 24 17 16 34 41 23 28 21 20 14 16 18 18 19 22 23 23 23 23 23
28 13 13 16 12 10 9 10 24 41 48 39 37 31 35 24 18 16 12 9 11 11 11 18 16 17 21 28 35 39 43 29 18 14 14 18 19 19 19 21 22 22 22 22
28 22 25 30 13 12 9 9 13 27 50 50 46 42 36 35 21 16 12 10 10 11 12 12 17 16 20 24 30 52 55 31 19 13 14 13 15 16 17 18 19 22 24 23
34 33 33 28 15 14 12 10 9 11 31 57 52 47 41 35 31 19 18 12 11 11 14 14 15 16 20 26 34 56 57 49 34 15 17 16 13 13 14 15 17 18 19 21
30 26 26 35 34 23 12 10 10 9 12 45 47 52 47 37 37 26 20 23 12 14 16 17 17 22 29 33 38 67 61 24 18 20 27 21 16 16 16 16 17 16 18 19
33 31 30 30 30 23 15 18 16 11 9 11 28 57 49 41 38 37 29 22 17 12 16 18 19 24 28 32 30 30 26 20 21 26 28 26 25 23 19 18 18 18 17 17
26 29 30 29 23 16 20 17 15 25 25 18 14 32 53 54 46 41 38 34 29 15 12 16 20 21 24 26 28 28 28 27 26 29 30 34 36 36 32 30 27 26 21 18
26 28 33 30 25 25 28 23 21 26 30 41 30 18 24 43 44 47 43 40 34 26 14 14 15 18 21 24 26 27 28 30 32 39 40 43 41 37 34 32 33 40 40 26
27 25 32 28 26 26 27 24 17 18 30 36 25 15 14 15 34 48 54 47 38 32 28 19 15 15 16 23 25 27 29 33 37 42 47 49 49 45 40 36 30 35 40 30
28 24 32 32 23 24 23 23 20 23 27 30 31 34 26 22 15 19 46 53 50 43 40 34 30 25 24 22 20 24 28 31 34 38 42 44 46 46 38 40 32 37 33 22
27 24 26 30 29 25 25 24 22 22 23 30 35 62 32 32 25 21 14 27 47 52 48 42 40 38 35 34 32 29 29 29 30 32 31 28 26 26 29 37 48 36 23 22
36 27 25 26 25 24 22 24 21 18 22 23 50 58 28 29 21 21 21 16 17 34 48 51 48 44 40 39 38 36 34 30 31 31 29 26 27 30 27 31 37 30 25 25
34 31 28 27 26 24 21 23 22 18 20 21 36 41 35 33 26 18 21 22 28 20 18 28 40 48 48 46 43 39 36 35 34 34 35 35 35 35 34 35 32 34 36 35
30 30 28 27 26 23 22 23 23 19 20 21 27 44 38 30 21 22 20 22 25 30 25 24 19 19 25 34 41 44 46 46 41 37 34 33 33 33 34 33 35 37 34 33
26 29 28 29 26 22 24 23 20 20 20 20 23 34 35 30 21 20 21 22 25 27 28 30 33 30 26 25 19 19 22 24 29 38 48 50 49 49 46 39 32 32 33 33
18 23 25 26 26 22 21 23 19 16 19 20 23 24 32 33 28 19 21 24 26 28 30 28 29 31 31 29 27 24 24 22 20 18 19 24 30 38 44 43 41 41 43 46
19 16 20 23 23 19 22 21 20 15 14 14 20 27 33 28 29 28 25 22 21 23 28 28 27 30 34 31 30 29 27 25 22 21 16 15 13 11 12 12 12 10 11 13
12 15 14 18 20 18 21 20 19 16 15 16 14 19 28 28 26 38 25 22 21 21 20 21 23 26 30 26 24 29 28 29 28 27 28 25 19 18 17 14 15 16 16 17
8 11 12 13 12 13 18 18 19 18 18 17 16 15 18 28 29 29 32 18 15 18 21 22 19 20 20 20 18 18 22 27 32 32 37 36 31 26 21 20 20 32 96 92
9 7 10 11 11 14 16 16 15 17 18 18 15 14 15 24 34 33 32 39 29 16 17 18 20 19 20 20 21 19 20 21 25 30 32 35 36 34 28 24 18 44 100 95
13 9 7 9 11 12 13 15 15 12 14 15 16 15 15 16 28 32 32 38 41 37 26 17 16 20 19 18 18 22 24 25 31 30 32 33 41 39 39 30 22 98 100 73
21 16 10 7 10 13 14 12 18 13 14 16 17 18 17 16 16 24 30 34 32 32 33 29 24 21 23 23 22 21 25 26 26 31 35 37 36 44 44 40 30 26 75 51
14 21 20 16 11 7 15 13 14 18 15 16 18 21 25 22 19 19 20 25 31 30 29 32 30 28 31 30 29 29 27 26 24 24 26 31 38 48 48 42 38 31 26 24

GFSCGP_250_rhum_036.txt.gz
RH
9 8 9 12 16 18 18 18 31 23 20 18 18 18 17 22 29 19 40 37 46 47 22 12 14 18 12 12 20 31 17 18 18 20 20 20 19 22 23 25 28 28 28 26
9 8 8 8 11 13 16 21 46 40 32 25 22 20 18 19 25 15 21 34 39 36 12 8 10 14 12 14 20 31 17 22 27 26 18 19 20 21 23 25 26 28 27 26
12 9 8 8 9 10 11 24 52 51 42 33 26 26 22 19 20 27 10 8 18 13 9 11 12 12 17 17 27 33 18 25 22 22 19 18 19 19 22 25 24 23 23 24
11 10 10 9 9 9 9 11 19 56 50 40 32 27 28 22 18 27 30 8 8 7 9 12 11 12 22 22 38 31 19 22 19 16 18 18 19 19 20 21 21 22 21 22
17 9 8 10 9 10 10 8 9 23 43 31 40 34 31 29 22 20 22 8 8 10 16 22 18 20 18 22 38 24 19 20 20 15 16 18 19 19 20 22 22 24 23 20
16 12 13 20 14 14 10 9 10 11 26 22 44 45 38 35 27 23 18 11 9 10 12 18 18 19 21 36 42 26 23 28 18 13 13 15 18 18 18 18 19 20 21 21
29 29 28 20 18 15 13 11 9 9 13 47 56 52 47 41 32 29 20 18 10 11 10 12 13 16 18 26 37 38 38 41 28 17 13 14 13 14 15 15 15 16 17 19
22 25 28 27 30 22 16 11 9 10 11 22 40 48 49 45 33 31 24 26 11 12 11 11 16 16 20 30 42 50 68 64 41 28 19 16 18 18 15 14 15 15 16 16
30 26 34 28 26 19 17 18 21 12 11 11 20 42 37 43 37 34 32 27 18 12 13 14 13 18 16 18 24 37 69 69 58 38 20 20 24 23 22 21 19 20 20 19
20 23 31 31 30 22 20 20 14 19 19 16 15 20 46 47 44 46 36 32 29 15 13 15 16 17 20 19 25 36 57 64 43 24 22 27 30 26 26 29 34 37 37 37
24 30 26 31 25 26 25 20 26 36 37 37 17 14 16 31 47 51 47 40 32 31 14 14 16 18 18 24 37 42 46 38 34 34 33 31 33 36 41 38 37 37 37 32
33 32 26 35 33 27 27 26 27 32 51 47 28 16 12 12 27 51 49 45 39 31 27 15 13 17 22 23 25 28 30 33 31 32 32 32 38 39 45 48 48 41 39 39
27 32 31 30 27 22 22 27 25 27 42 38 31 32 27 15 12 26 53 51 47 40 36 31 18 14 16 20 24 28 29 29 31 30 31 34 38 42 49 44 41 34 30 33
20 34 35 29 39 33 24 27 25 22 31 48 57 40 34 29 19 15 28 48 52 50 41 37 37 35 19 15 16 19 23 26 27 28 29 32 37 39 38 38 39 32 26 24
21 25 34 33 27 23 22 27 25 26 28 36 70 52 30 26 31 21 14 21 38 51 53 47 42 38 35 35 29 20 18 19 20 22 24 27 29 32 33 31 27 26 24 23
23 20 29 32 28 24 25 25 26 27 29 34 62 66 37 24 33 30 28 19 17 22 31 43 52 49 40 37 37 37 35 33 31 31 30 28 29 29 29 29 28 28 29 32
23 21 22 32 32 25 20 23 27 25 29 33 55 68 66 35 24 27 27 25 20 14 13 16 25 34 45 51 46 40 38 34 35 35 33 33 33 33 33 33 33 32 30 30
26 22 26 28 27 25 24 21 23 24 30 33 49 58 76 47 31 26 21 21 24 22 23 18 17 18 20 25 38 43 46 47 46 46 46 46 44 43 43 41 41 44 46 46
30 27 22 24 22 28 24 20 20 22 29 32 38 45 61 50 36 26 24 25 25 24 28 25 23 24 23 20 17 15 16 18 21 24 24 22 20 19 16 15 15 14 14 15
22 29 26 20 22 23 24 25 23 18 25 33 35 40 53 60 37 35 30 25 22 23 28 25 23 24 26 24 21 20 19 20 21 21 18 19 22 20 19 18 16 16 15 14
13 17 24 23 19 22 21 21 23 22 21 28 33 37 45 57 41 40 33 26 24 23 27 24 24 27 26 22 18 22 23 27 24 25 24 24 23 24 22 19 17 18 17 17
11 13 18 26 20 16 20 21 24 24 18 22 28 32 36 46 50 38 41 28 26 24 24 28 24 25 26 27 26 24 28 29 27 20 17 18 18 20 21 26 25 27 23 23
11 12 12 16 22 19 18 19 20 23 21 21 23 28 32 39 44 47 37 36 29 28 24 26 26 25 26 26 26 26 25 27 27 24 22 22 21 20 20 23 27 30 29 30
20 11 11 11 17 22 18 17 23 23 23 20 21 24 26 30 34 44 46 40 33 30 29 24 25 24 25 26 26 27 28 25 24 27 24 23 24 23 20 20 22 29 29 32
23 17 12 12 15 18 21 19 20 22 23 21 23 23 24 24 24 31 38 44 45 33 29 30 24 22 21 23 24 25 26 28 29 27 25 22 21 21 22 21 20 21 24 29
22 23 18 12 12 11 14 19 18 18 18 22 22 24 23 23 23 22 24 30 40 50 44 36 34 31 28 24 25 27 26 24 24 24 22 22 20 20 17 18 22 18 18 27